OBJECT CG, 58334

Orbit data source: Space-Track

You're viewing an Uncataloged Satellite

Recently launched and/or uncataloged satellites may have evolving metadata. Metadata may include but not limited to: Owner, Maufacturer, Bus, Motor, and Mission.

OBJECT CG, 58334 is a satellite in SSO that was launched on Sat, 11 Nov 2023 UTC via an FALCON 9 launch vehicle from the Air Force Western Test Range (AFWTR). Unknown objects in Earth's orbit typically refer to objects detected orbiting the Earth but have not yet been identified or cataloged. These objects could be anything from previously untracked satellites, spent rocket stages, debris from satellite collisions, or even natural meteoroids temporarily captured by Earth's gravity.

Loading next visibility...
Identifier
58334, 2023-174CG
Orbit
SSO
Country
Flag of TBDTBD
Related business
Manufacturer
Outpost Tech
Mission
Operational Commercial Technology
Bus & Motor
CUBESAT 3U, Unknown motor
Mass
3 kg wet, 3 kg dry
Launch date (UTC)
2023-11-11 (2 years ago)
Launch vehicle
FALCON 9
Launch site
Air Force Western Test Range (AFWTR)
Object type
Unknown
Shape & HBR
Box, 0.1 m
Radar Cross Section
0.035 m², Small (<0.1 m²)

Expand to show TLE details & history
Last TLE update: 22 hours ago

TLE from 22 hours ago
0 OBJECT CG
1 58334U 23174CG  25348.93056845  .00023065  00000-0  49123-3 0  9990
2 58334  97.4097  71.6553 0007853  72.7011 287.5096 15.44914926117268
Epoch: 2025-12-14T22:20Z
TLE epoch observation values (Epoch: 2025-12-14T22:20:01.114Z)
Latitude
-0.00002°
Longitude
12.81424°
Altitude
433.147 km
Speed
7.653 km/s
True Right ascension
04h 46m 37s
True Declination
0° 00' 00"
Sunlit
Object was in full shadow at epoch
Visualization orbit readout
Latitude
Unknown
Longitude
Unknown
Altitude
Unknown
Speed
Unknown
Apparent Right ascension
Unknown
Apparent Declination
Unknown
Sunlit
N/A
Visualization observer readout
Local Sidereal Time
19:05:00
Azimuth
Unknown
Elevation
Unknown
Doppler factor
Unknown
Orbital elements
Apogee altitude
433.906 km
Perigee altitude
423.216 km
Semi-major axis
6,806.698 km
Eccentricity
0.00079
Inclination
97.4097°
RAAN
71.6553°
Arg. of periapsis
72.7011°
True anomaly
287.42376°
Mean anomaly
287.5096°
Eccentric anomaly
287.46668°
Mean motion
3.8649 °/min
Orbital period
93.15 mins
BSTAR
0.00049123
Loading maneuver chart data...
Computing Atmospheric mass density...
Loading historical data...
Loading historical data...
Loading historical data...
Loading historical data...
Loading historical data...
Loading historical data...
Loading historical data...

Documentation

Showing up to 5 results
|